Year,Month,Day,Hour,Minute,Value (Times are PST for temperature in C)
2010,11,24,00,00,-6.60
2010,11,24,00,01,-6.50
2010,11,24,00,02,-6.50
2010,11,24,00,03,-6.50
2010,11,24,00,04,-6.50
2010,11,24,00,05,-6.40
2010,11,24,00,06,-6.40
2010,11,24,00,07,-6.40
2010,11,24,00,08,-6.40
2010,11,24,00,09,-6.40
2010,11,24,00,10,-6.40
2010,11,24,00,11,-6.40
2010,11,24,00,12,-6.40
2010,11,24,00,13,-6.40
2010,11,24,00,14,-6.30
2010,11,24,00,15,-6.30
2010,11,24,00,16,-6.30
2010,11,24,00,17,-6.30
2010,11,24,00,18,-6.30
2010,11,24,00,19,-6.30
2010,11,24,00,20,-6.30
2010,11,24,00,21,-6.30
2010,11,24,00,22,-6.20
2010,11,24,00,23,-6.20
2010,11,24,00,24,-6.20
2010,11,24,00,25,-6.10
2010,11,24,00,26,-6.10
2010,11,24,00,27,-6.10
2010,11,24,00,28,-6.10
2010,11,24,00,29,-6.10
2010,11,24,00,30,-6.10
2010,11,24,00,31,-6.10
2010,11,24,00,32,-6.10
2010,11,24,00,33,-6.10
2010,11,24,00,34,-6.10
2010,11,24,00,35,-6.10
2010,11,24,00,36,-6.10
2010,11,24,00,37,-6.10
2010,11,24,00,38,-6.10
2010,11,24,00,39,-6.20
2010,11,24,00,40,-6.20
2010,11,24,00,41,-6.20
2010,11,24,00,42,-6.30
2010,11,24,00,43,-6.30
2010,11,24,00,44,-6.30
2010,11,24,00,45,-6.30
2010,11,24,00,46,-6.30
2010,11,24,00,47,-6.30
2010,11,24,00,48,-6.20
2010,11,24,00,49,-6.20
2010,11,24,00,50,-6.20
2010,11,24,00,51,-6.20
2010,11,24,00,52,-6.20
2010,11,24,00,53,-6.20
2010,11,24,00,54,-6.20
2010,11,24,00,55,-6.20
2010,11,24,00,56,-6.20
2010,11,24,00,57,-6.20
2010,11,24,00,58,-6.20
2010,11,24,00,59,-6.20
2010,11,24,01,00,-6.20
2010,11,24,01,01,-6.20
2010,11,24,01,02,-6.10
2010,11,24,01,03,-6.10
2010,11,24,01,04,-6.10
2010,11,24,01,05,-6.10
2010,11,24,01,06,-6.10
2010,11,24,01,07,-6.10
2010,11,24,01,08,-6.10
2010,11,24,01,09,-6.10
2010,11,24,01,10,-6.10
2010,11,24,01,11,-6.10
2010,11,24,01,12,-6.00
2010,11,24,01,13,-5.90
2010,11,24,01,14,-5.90
2010,11,24,01,15,-5.90
2010,11,24,01,16,-5.90
2010,11,24,01,17,-5.90
2010,11,24,01,18,-5.80
2010,11,24,01,19,-5.80
2010,11,24,01,20,-5.80
2010,11,24,01,21,-5.80
2010,11,24,01,22,-5.70
2010,11,24,01,23,-5.70
2010,11,24,01,24,-5.60
2010,11,24,01,25,-5.60
2010,11,24,01,26,-5.50
2010,11,24,01,27,-5.50
2010,11,24,01,28,-5.50
2010,11,24,01,29,-5.50
2010,11,24,01,30,-5.40
2010,11,24,01,31,-5.40
2010,11,24,01,32,-5.40
2010,11,24,01,33,-5.40
2010,11,24,01,34,-5.40
2010,11,24,01,35,-5.30
2010,11,24,01,36,-5.30
2010,11,24,01,37,-5.30
2010,11,24,01,38,-5.30
2010,11,24,01,39,-5.30
2010,11,24,01,40,-5.30
2010,11,24,01,41,-5.30
2010,11,24,01,42,-5.30
2010,11,24,01,43,-5.30
2010,11,24,01,44,-5.30
2010,11,24,01,45,-5.30
2010,11,24,01,46,-5.30
2010,11,24,01,47,-5.30
2010,11,24,01,48,-5.30
2010,11,24,01,49,-5.30
2010,11,24,01,50,-5.30
2010,11,24,01,51,-5.30
2010,11,24,01,52,-5.30
2010,11,24,01,53,-5.30
2010,11,24,01,54,-5.30
2010,11,24,01,55,-5.30
2010,11,24,01,56,-5.30
2010,11,24,01,57,-5.30
2010,11,24,01,58,-5.30
2010,11,24,01,59,-5.30
2010,11,24,02,00,-5.30
2010,11,24,02,01,-5.30
2010,11,24,02,02,-5.30
2010,11,24,02,03,-5.40
2010,11,24,02,04,-5.40
2010,11,24,02,05,-5.40
2010,11,24,02,06,-5.40
2010,11,24,02,07,-5.40
2010,11,24,02,08,-5.40
2010,11,24,02,09,-5.40
2010,11,24,02,10,-5.40
2010,11,24,02,11,-5.40
2010,11,24,02,12,-5.40
2010,11,24,02,13,-5.30
2010,11,24,02,14,-5.30
2010,11,24,02,15,-5.30
2010,11,24,02,16,-5.30
2010,11,24,02,17,-5.30
2010,11,24,02,18,-5.30
2010,11,24,02,19,-5.30
2010,11,24,02,20,-5.30
2010,11,24,02,21,-5.30
2010,11,24,02,22,-5.30
2010,11,24,02,23,-5.30
2010,11,24,02,24,-5.30
2010,11,24,02,25,-5.30
2010,11,24,02,26,-5.30
2010,11,24,02,27,-5.30
2010,11,24,02,28,-5.30
2010,11,24,02,29,-5.30
2010,11,24,02,30,-5.30
2010,11,24,02,31,-5.30
2010,11,24,02,32,-5.30
2010,11,24,02,33,-5.30
2010,11,24,02,34,-5.30
2010,11,24,02,35,-5.20
2010,11,24,02,36,-5.20
2010,11,24,02,37,-5.20
2010,11,24,02,38,-5.20
2010,11,24,02,39,-5.20
2010,11,24,02,40,-5.10
2010,11,24,02,41,-5.10
2010,11,24,02,42,-5.10
2010,11,24,02,43,-5.10
2010,11,24,02,44,-5.10
2010,11,24,02,45,-5.10
2010,11,24,02,46,-5.10
2010,11,24,02,47,-5.00
2010,11,24,02,48,-5.00
2010,11,24,02,49,-5.00
2010,11,24,02,50,-5.00
2010,11,24,02,51,-5.00
2010,11,24,02,52,-5.00
2010,11,24,02,53,-5.00
2010,11,24,02,54,-4.90
2010,11,24,02,55,-4.90
2010,11,24,02,56,-4.90
2010,11,24,02,57,-4.90
2010,11,24,02,58,-4.90
2010,11,24,02,59,-4.90
2010,11,24,03,00,-4.90
2010,11,24,03,01,-4.90
2010,11,24,03,02,-4.90
2010,11,24,03,03,-4.80
2010,11,24,03,04,-4.80
2010,11,24,03,05,-4.70
2010,11,24,03,06,-4.70
2010,11,24,03,07,-4.70
2010,11,24,03,08,-4.70
2010,11,24,03,09,-4.70
2010,11,24,03,10,-4.70
2010,11,24,03,11,-4.70
2010,11,24,03,12,-4.70
2010,11,24,03,13,-4.60
2010,11,24,03,14,-4.60
2010,11,24,03,15,-4.60
2010,11,24,03,16,-4.60
2010,11,24,03,17,-4.60
2010,11,24,03,18,-4.60
2010,11,24,03,19,-4.60
2010,11,24,03,20,-4.50
2010,11,24,03,21,-4.50
2010,11,24,03,22,-4.50
2010,11,24,03,23,-4.50
2010,11,24,03,24,-4.50
2010,11,24,03,25,-4.50
2010,11,24,03,26,-4.50
2010,11,24,03,27,-4.50
2010,11,24,03,28,-4.40
2010,11,24,03,29,-4.40
2010,11,24,03,30,-4.40
2010,11,24,03,31,-4.40
2010,11,24,03,32,-4.40
2010,11,24,03,33,-4.40
2010,11,24,03,34,-4.40
2010,11,24,03,35,-4.40
2010,11,24,03,36,-4.40
2010,11,24,03,37,-4.40
2010,11,24,03,38,-4.40
2010,11,24,03,39,-4.40
2010,11,24,03,40,-4.40
2010,11,24,03,41,-4.40
2010,11,24,03,42,-4.30
2010,11,24,03,43,-4.30
2010,11,24,03,44,-4.30
2010,11,24,03,45,-4.30
2010,11,24,03,46,-4.30
2010,11,24,03,47,-4.30
2010,11,24,03,48,-4.20
2010,11,24,03,49,-4.20
2010,11,24,03,50,-4.20
2010,11,24,03,51,-4.20
2010,11,24,03,52,-4.20
2010,11,24,03,53,-4.20
2010,11,24,03,54,-4.20
2010,11,24,03,55,-4.20
2010,11,24,03,56,-4.20
2010,11,24,03,57,-4.20
2010,11,24,03,58,-4.20
2010,11,24,03,59,-4.20
2010,11,24,04,00,-4.20
2010,11,24,04,01,-4.20
2010,11,24,04,02,-4.20
2010,11,24,04,03,-4.20
2010,11,24,04,04,-4.20
2010,11,24,04,05,-4.20
2010,11,24,04,06,-4.20
2010,11,24,04,07,-4.20
2010,11,24,04,08,-4.20
2010,11,24,04,09,-4.20
2010,11,24,04,10,-4.20
2010,11,24,04,11,-4.20
2010,11,24,04,12,-4.20
2010,11,24,04,13,-4.20
2010,11,24,04,14,-4.20
2010,11,24,04,15,-4.20
2010,11,24,04,16,-4.30
2010,11,24,04,17,-4.30
2010,11,24,04,18,-4.20
2010,11,24,04,19,-4.20
2010,11,24,04,20,-4.20
2010,11,24,04,21,-4.20
2010,11,24,04,22,-4.20
2010,11,24,04,23,-4.20
2010,11,24,04,24,-4.20
2010,11,24,04,25,-4.20
2010,11,24,04,26,-4.20
2010,11,24,04,27,-4.20
2010,11,24,04,28,-4.20
2010,11,24,04,29,-4.20
2010,11,24,04,30,-4.20
2010,11,24,04,31,-4.20
2010,11,24,04,32,-4.20
2010,11,24,04,33,-4.20
2010,11,24,04,34,-4.20
2010,11,24,04,35,-4.20
2010,11,24,04,36,-4.30
2010,11,24,04,37,-4.30
2010,11,24,04,38,-4.30
2010,11,24,04,39,-4.30
2010,11,24,04,40,-4.30
2010,11,24,04,41,-4.30
2010,11,24,04,42,-4.30
2010,11,24,04,43,-4.30
2010,11,24,04,44,-4.30
2010,11,24,04,45,-4.30
2010,11,24,04,46,-4.30
2010,11,24,04,47,-4.30
2010,11,24,04,48,-4.30
2010,11,24,04,49,-4.30
2010,11,24,04,50,-4.30
2010,11,24,04,51,-4.30
2010,11,24,04,52,-4.30
2010,11,24,04,53,-4.30
2010,11,24,04,54,-4.30
2010,11,24,04,55,-4.30
2010,11,24,04,56,-4.20
2010,11,24,04,57,-4.20
2010,11,24,04,58,-4.20
2010,11,24,04,59,-4.30
2010,11,24,05,00,-4.30
2010,11,24,05,01,-4.30
2010,11,24,05,02,-4.30
2010,11,24,05,03,-4.30
2010,11,24,05,04,-4.30
2010,11,24,05,05,-4.30
2010,11,24,05,06,-4.30
2010,11,24,05,07,-4.40
2010,11,24,05,08,-4.40
2010,11,24,05,09,-4.40
2010,11,24,05,10,-4.40
2010,11,24,05,11,-4.40
2010,11,24,05,12,-4.40
2010,11,24,05,13,-4.40
2010,11,24,05,14,-4.40
2010,11,24,05,15,-4.40
2010,11,24,05,16,-4.40
2010,11,24,05,17,-4.40
2010,11,24,05,18,-4.40
2010,11,24,05,19,-4.40
2010,11,24,05,20,-4.40
2010,11,24,05,21,-4.40
2010,11,24,05,22,-4.40
2010,11,24,05,23,-4.40
2010,11,24,05,24,-4.40
2010,11,24,05,25,-4.40
2010,11,24,05,26,-4.40
2010,11,24,05,27,-4.40
2010,11,24,05,28,-4.40
2010,11,24,05,29,-4.40
2010,11,24,05,30,-4.40
2010,11,24,05,31,-4.40
2010,11,24,05,32,-4.40
2010,11,24,05,33,-4.40
2010,11,24,05,34,-4.40
2010,11,24,05,35,-4.40
2010,11,24,05,36,-4.40
2010,11,24,05,37,-4.40
2010,11,24,05,38,-4.40
2010,11,24,05,39,-4.40
2010,11,24,05,40,-4.40
2010,11,24,05,41,-4.40
2010,11,24,05,42,-4.40
2010,11,24,05,43,-4.40
2010,11,24,05,44,-4.40
2010,11,24,05,45,-4.40
2010,11,24,05,46,-4.40
2010,11,24,05,47,-4.40
2010,11,24,05,48,-4.30
2010,11,24,05,49,-4.30
2010,11,24,05,50,-4.30
2010,11,24,05,51,-4.30
2010,11,24,05,52,-4.30
2010,11,24,05,53,-4.30
2010,11,24,05,54,-4.30
2010,11,24,05,55,-4.30
2010,11,24,05,56,-4.30
2010,11,24,05,57,-4.30
2010,11,24,05,58,-4.30
2010,11,24,05,59,-4.30
2010,11,24,06,00,-4.30
2010,11,24,06,01,-4.30
2010,11,24,06,02,-4.30
2010,11,24,06,03,-4.30
2010,11,24,06,04,-4.30
2010,11,24,06,05,-4.30
2010,11,24,06,06,-4.30
2010,11,24,06,07,-4.40
2010,11,24,06,08,-4.40
2010,11,24,06,09,-4.30
2010,11,24,06,10,-4.40
2010,11,24,06,11,-4.40
2010,11,24,06,12,-4.40
2010,11,24,06,13,-4.30
2010,11,24,06,14,-4.30
2010,11,24,06,15,-4.30
2010,11,24,06,16,-4.30
2010,11,24,06,17,-4.30
2010,11,24,06,18,-4.30
2010,11,24,06,19,-4.30
2010,11,24,06,20,-4.30
2010,11,24,06,21,-4.30
2010,11,24,06,22,-4.30
2010,11,24,06,23,-4.30
2010,11,24,06,24,-4.30
2010,11,24,06,25,-4.30
2010,11,24,06,26,-4.30
2010,11,24,06,27,-4.30
2010,11,24,06,28,-4.30
2010,11,24,06,29,-4.20
2010,11,24,06,30,-4.20
2010,11,24,06,31,-4.20
2010,11,24,06,32,-4.20
2010,11,24,06,33,-4.20
2010,11,24,06,34,-4.20
2010,11,24,06,35,-4.20
2010,11,24,06,36,-4.20
2010,11,24,06,37,-4.20
2010,11,24,06,38,-4.10
2010,11,24,06,39,-4.10
2010,11,24,06,40,-4.10
2010,11,24,06,41,-4.10
2010,11,24,06,42,-4.10
2010,11,24,06,43,-4.00
2010,11,24,06,44,-4.00
2010,11,24,06,45,-4.00
2010,11,24,06,46,-4.00
2010,11,24,06,47,-3.90
2010,11,24,06,48,-3.90
2010,11,24,06,49,-3.90
2010,11,24,06,50,-3.90
2010,11,24,06,51,-3.90
2010,11,24,06,52,-3.80
2010,11,24,06,53,-3.80
2010,11,24,06,54,-3.80
2010,11,24,06,55,-3.80
2010,11,24,06,56,-3.80
2010,11,24,06,57,-3.80
2010,11,24,06,58,-3.80
2010,11,24,06,59,-3.80
2010,11,24,07,00,-3.70
2010,11,24,07,01,-3.70
2010,11,24,07,02,-3.70
2010,11,24,07,03,-3.70
2010,11,24,07,04,-3.70
2010,11,24,07,05,-3.70
2010,11,24,07,06,-3.70
2010,11,24,07,07,-3.70
2010,11,24,07,08,-3.70
2010,11,24,07,09,-3.70
2010,11,24,07,10,-3.70
2010,11,24,07,11,-3.70
2010,11,24,07,12,-3.70
2010,11,24,07,13,-3.70
2010,11,24,07,14,-3.70
2010,11,24,07,15,-3.70
2010,11,24,07,16,-3.70
2010,11,24,07,17,-3.70
2010,11,24,07,18,-3.70
2010,11,24,07,19,-3.70
2010,11,24,07,20,-3.70
2010,11,24,07,21,-3.70
2010,11,24,07,22,-3.70
2010,11,24,07,23,-3.70
2010,11,24,07,24,-3.70
2010,11,24,07,25,-3.70
2010,11,24,07,26,-3.70
2010,11,24,07,27,-3.70
2010,11,24,07,28,-3.70
2010,11,24,07,29,-3.70
2010,11,24,07,30,-3.70
2010,11,24,07,31,-3.70
2010,11,24,07,32,-3.70
2010,11,24,07,33,-3.70
2010,11,24,07,34,-3.70
2010,11,24,07,35,-3.70
2010,11,24,07,36,-3.70
2010,11,24,07,37,-3.70
2010,11,24,07,38,-3.70
2010,11,24,07,39,-3.70
2010,11,24,07,40,-3.70
2010,11,24,07,41,-3.70
2010,11,24,07,42,-3.70
2010,11,24,07,43,-3.70
2010,11,24,07,44,-3.70
2010,11,24,07,45,-3.70
2010,11,24,07,46,-3.70
2010,11,24,07,47,-3.70
2010,11,24,07,48,-3.70
2010,11,24,07,49,-3.70
2010,11,24,07,50,-3.70
2010,11,24,07,51,-3.70
2010,11,24,07,52,-3.70
2010,11,24,07,53,-3.60
2010,11,24,07,54,-3.60
2010,11,24,07,55,-3.60
2010,11,24,07,56,-3.60
2010,11,24,07,57,-3.50
2010,11,24,07,58,-3.50
2010,11,24,07,59,-3.50
2010,11,24,08,00,-3.50
2010,11,24,08,01,-3.40
2010,11,24,08,02,-3.40
2010,11,24,08,03,-3.40
2010,11,24,08,04,-3.40
2010,11,24,08,05,-3.30
2010,11,24,08,06,-3.30
2010,11,24,08,07,-3.30
2010,11,24,08,08,-3.30
2010,11,24,08,09,-3.30
2010,11,24,08,10,-3.30
2010,11,24,08,11,-3.30
2010,11,24,08,12,-3.30
2010,11,24,08,13,-3.20
2010,11,24,08,14,-3.20
2010,11,24,08,15,-3.20
2010,11,24,08,16,-3.10
2010,11,24,08,17,-3.10
2010,11,24,08,18,-3.10
2010,11,24,08,19,-3.10
2010,11,24,08,20,-3.00
2010,11,24,08,21,-3.00
2010,11,24,08,22,-3.00
2010,11,24,08,23,-3.00
2010,11,24,08,24,-3.00
2010,11,24,08,25,-3.00
2010,11,24,08,26,-3.00
2010,11,24,08,27,-3.00
2010,11,24,08,28,-2.90
2010,11,24,08,29,-2.90
2010,11,24,08,30,-2.90
2010,11,24,08,31,-2.90
2010,11,24,08,32,-2.90
2010,11,24,08,33,-2.90
2010,11,24,08,34,-2.90
2010,11,24,08,35,-2.80
2010,11,24,08,36,-2.80
2010,11,24,08,37,-2.80
2010,11,24,08,38,-2.80
2010,11,24,08,39,-2.80
2010,11,24,08,40,-2.80
2010,11,24,08,41,-2.80
2010,11,24,08,42,-2.80
2010,11,24,08,43,-2.80
2010,11,24,08,44,-2.80
2010,11,24,08,45,-2.80
2010,11,24,08,46,-2.80
2010,11,24,08,47,-2.80
2010,11,24,08,48,-2.80
2010,11,24,08,49,-2.80
2010,11,24,08,50,-2.80
2010,11,24,08,51,-2.90
2010,11,24,08,52,-2.90
2010,11,24,08,53,-2.90
2010,11,24,08,54,-2.80
2010,11,24,08,55,-2.80
2010,11,24,08,56,-2.80
2010,11,24,08,57,-2.80
2010,11,24,08,58,-2.80
2010,11,24,08,59,-2.80
2010,11,24,09,00,-2.80
2010,11,24,09,01,-2.80
2010,11,24,09,02,-2.80
2010,11,24,09,03,-2.70
2010,11,24,09,04,-2.70
2010,11,24,09,05,-2.70
2010,11,24,09,06,-2.70
2010,11,24,09,07,-2.70
2010,11,24,09,08,-2.60
2010,11,24,09,09,-2.60
2010,11,24,09,10,-2.60
2010,11,24,09,11,-2.50
2010,11,24,09,12,-2.50
2010,11,24,09,13,-2.50
2010,11,24,09,14,-2.50
2010,11,24,09,15,-2.50
2010,11,24,09,16,-2.50
2010,11,24,09,17,-2.40
2010,11,24,09,18,-2.40
2010,11,24,09,19,-2.40
2010,11,24,09,20,-2.40
2010,11,24,09,21,-2.40
2010,11,24,09,22,-2.40
2010,11,24,09,23,-2.40
2010,11,24,09,24,-2.40
2010,11,24,09,25,-2.40
2010,11,24,09,26,-2.40
2010,11,24,09,27,-2.40
2010,11,24,09,28,-2.40
2010,11,24,09,29,-2.40
2010,11,24,09,30,-2.30
2010,11,24,09,31,-2.30
2010,11,24,09,32,-2.30
2010,11,24,09,33,-2.30
2010,11,24,09,34,-2.30
2010,11,24,09,35,-2.30
2010,11,24,09,36,-2.30
2010,11,24,09,37,-2.30
2010,11,24,09,38,-2.30
2010,11,24,09,39,-2.30
2010,11,24,09,40,-2.30
2010,11,24,09,41,-2.30
2010,11,24,09,42,-2.30
2010,11,24,09,43,-2.30
2010,11,24,09,44,-2.30
2010,11,24,09,45,-2.30
2010,11,24,09,46,-2.30
2010,11,24,09,47,-2.30
2010,11,24,09,48,-2.30
2010,11,24,09,49,-2.20
2010,11,24,09,50,-2.20
2010,11,24,09,51,-2.20
2010,11,24,09,52,-2.20
2010,11,24,09,53,-2.20
2010,11,24,09,54,-2.20
2010,11,24,09,55,-2.20
2010,11,24,09,56,-2.20
2010,11,24,09,57,-2.20
2010,11,24,09,58,-2.20
2010,11,24,09,59,-2.20
2010,11,24,10,00,-2.20
2010,11,24,10,01,-2.20
2010,11,24,10,02,-2.10
2010,11,24,10,03,-2.10
2010,11,24,10,04,-2.10
2010,11,24,10,05,-2.10
2010,11,24,10,06,-2.10
2010,11,24,10,07,-2.10
2010,11,24,10,08,-2.10
2010,11,24,10,09,-2.10
2010,11,24,10,10,-2.10
2010,11,24,10,11,-2.10
2010,11,24,10,12,-2.10
2010,11,24,10,13,-2.10
2010,11,24,10,14,-2.10
2010,11,24,10,15,-2.10
2010,11,24,10,16,-2.10
2010,11,24,10,17,-2.10
2010,11,24,10,18,-2.10
2010,11,24,10,19,-2.00
2010,11,24,10,20,-2.00
2010,11,24,10,21,-2.00
2010,11,24,10,22,-2.00
2010,11,24,10,23,-2.00
2010,11,24,10,24,-2.00
2010,11,24,10,25,-2.00
2010,11,24,10,26,-2.00
2010,11,24,10,27,-2.00
2010,11,24,10,28,-2.00
2010,11,24,10,29,-2.00
2010,11,24,10,30,-2.00
2010,11,24,10,31,-2.00
2010,11,24,10,32,-2.00
2010,11,24,10,33,-2.00
2010,11,24,10,34,-1.90
2010,11,24,10,35,-1.90
2010,11,24,10,36,-1.90
2010,11,24,10,37,-1.80
2010,11,24,10,38,-1.80
2010,11,24,10,39,-1.80
2010,11,24,10,40,-1.80
2010,11,24,10,41,-1.80
2010,11,24,10,42,-1.80
2010,11,24,10,43,-1.80
2010,11,24,10,44,-1.70
2010,11,24,10,45,-1.70
2010,11,24,10,46,-1.70
2010,11,24,10,47,-1.70
2010,11,24,10,48,-1.70
2010,11,24,10,49,-1.60
2010,11,24,10,50,-1.60
2010,11,24,10,51,-1.60
2010,11,24,10,52,-1.60
2010,11,24,10,53,-1.60
2010,11,24,10,54,-1.60
2010,11,24,10,55,-1.60
2010,11,24,10,56,-1.50
2010,11,24,10,57,-1.60
2010,11,24,10,58,-1.50
2010,11,24,10,59,-1.50
2010,11,24,11,00,-1.50
2010,11,24,11,01,-1.50
2010,11,24,11,02,-1.50
2010,11,24,11,03,-1.50
2010,11,24,11,04,-1.50
2010,11,24,11,05,-1.50
2010,11,24,11,06,-1.50
2010,11,24,11,07,-1.40
2010,11,24,11,08,-1.40
2010,11,24,11,09,-1.40
2010,11,24,11,10,-1.40
2010,11,24,11,11,-1.40
2010,11,24,11,12,-1.40
2010,11,24,11,13,-1.40
2010,11,24,11,14,-1.40
2010,11,24,11,15,-1.40
2010,11,24,11,16,-1.40
2010,11,24,11,17,-1.40
2010,11,24,11,18,-1.40
2010,11,24,11,19,-1.40
2010,11,24,11,20,-1.40
2010,11,24,11,21,-1.40
2010,11,24,11,22,-1.40
2010,11,24,11,23,-1.40
2010,11,24,11,24,-1.40
2010,11,24,11,25,-1.40
2010,11,24,11,26,-1.40
2010,11,24,11,27,-1.30
2010,11,24,11,28,-1.30
2010,11,24,11,29,-1.30
2010,11,24,11,30,-1.30
2010,11,24,11,31,-1.30
2010,11,24,11,32,-1.30
2010,11,24,11,33,-1.30
2010,11,24,11,34,-1.30
2010,11,24,11,35,-1.20
2010,11,24,11,36,-1.20
2010,11,24,11,37,-1.20
2010,11,24,11,38,-1.20
2010,11,24,11,39,-1.20
2010,11,24,11,40,-1.20
2010,11,24,11,41,-1.30
2010,11,24,11,42,-1.30
2010,11,24,11,43,-1.20
2010,11,24,11,44,-1.20
2010,11,24,11,45,-1.30
2010,11,24,11,46,-1.30
2010,11,24,11,47,-1.30
2010,11,24,11,48,-1.30
2010,11,24,11,49,-1.30
2010,11,24,11,50,-1.30
2010,11,24,11,51,-1.20
2010,11,24,11,52,-1.20
2010,11,24,11,53,-1.20
2010,11,24,11,54,-1.30
2010,11,24,11,55,-1.30
2010,11,24,11,56,-1.30
2010,11,24,11,57,-1.30
2010,11,24,11,58,-1.30
2010,11,24,11,59,-1.30
2010,11,24,12,00,-1.40
2010,11,24,12,01,-1.40
2010,11,24,12,02,-1.40
2010,11,24,12,03,-1.40
2010,11,24,12,04,-1.40
2010,11,24,12,05,-1.30
2010,11,24,12,06,-1.30
2010,11,24,12,07,-1.30
2010,11,24,12,08,-1.40
2010,11,24,12,09,-1.40
2010,11,24,12,10,-1.30
2010,11,24,12,11,-1.30
2010,11,24,12,12,-1.30
2010,11,24,12,13,-1.30
2010,11,24,12,14,-1.30
2010,11,24,12,15,-1.40
2010,11,24,12,16,-1.40
2010,11,24,12,17,-1.40
2010,11,24,12,18,-1.40
2010,11,24,12,19,-1.40
2010,11,24,12,20,-1.40
2010,11,24,12,21,-1.40
2010,11,24,12,22,-1.40
2010,11,24,12,23,-1.40
2010,11,24,12,24,-1.40
2010,11,24,12,25,-1.40
2010,11,24,12,26,-1.40
2010,11,24,12,27,-1.30
2010,11,24,12,28,-1.30
2010,11,24,12,29,-1.30
2010,11,24,12,30,-1.30
2010,11,24,12,31,-1.30
2010,11,24,12,32,-1.20
2010,11,24,12,33,-1.20
2010,11,24,12,34,-1.30
2010,11,24,12,35,-1.30
2010,11,24,12,36,-1.20
2010,11,24,12,37,-1.20
2010,11,24,12,38,-1.20
2010,11,24,12,39,-1.20
2010,11,24,12,40,-1.20
2010,11,24,12,41,-1.20
2010,11,24,12,42,-1.20
2010,11,24,12,43,-1.20
2010,11,24,12,44,-1.20
2010,11,24,12,45,-1.20
2010,11,24,12,46,-1.20
2010,11,24,12,47,-1.20
2010,11,24,12,48,-1.20
2010,11,24,12,49,-1.20
2010,11,24,12,50,-1.20
2010,11,24,12,51,-1.20
2010,11,24,12,52,-1.10
2010,11,24,12,53,-1.10
2010,11,24,12,54,-1.10
2010,11,24,12,55,-1.10
2010,11,24,12,56,-1.10
2010,11,24,12,57,-1.10
2010,11,24,12,58,-1.10
2010,11,24,12,59,-1.10
2010,11,24,13,00,-1.10
2010,11,24,13,01,-1.10
2010,11,24,13,02,-1.10
2010,11,24,13,03,-1.10
2010,11,24,13,04,-1.10
2010,11,24,13,05,-1.10
2010,11,24,13,06,-1.10
2010,11,24,13,07,-1.10
2010,11,24,13,08,-1.10
2010,11,24,13,09,-1.10
2010,11,24,13,10,-1.10
2010,11,24,13,11,-1.10
2010,11,24,13,12,-1.10
2010,11,24,13,13,-1.10
2010,11,24,13,14,-1.10
2010,11,24,13,15,-1.10
2010,11,24,13,16,-1.10
2010,11,24,13,17,-1.10
2010,11,24,13,18,-1.10
2010,11,24,13,19,-1.10
2010,11,24,13,20,-1.10
2010,11,24,13,21,-1.10
2010,11,24,13,22,-1.10
2010,11,24,13,23,-1.10
2010,11,24,13,24,-1.10
2010,11,24,13,25,-1.10
2010,11,24,13,26,-1.00
2010,11,24,13,27,-0.90
2010,11,24,13,28,-0.90
2010,11,24,13,29,-0.90
2010,11,24,13,30,-1.00
2010,11,24,13,31,-1.10
2010,11,24,13,32,-1.10
2010,11,24,13,33,-1.10
2010,11,24,13,34,-1.10
2010,11,24,13,35,-1.10
2010,11,24,13,36,-1.10
2010,11,24,13,37,-1.10
2010,11,24,13,38,-1.10
2010,11,24,13,39,-1.10
2010,11,24,13,40,-1.10
2010,11,24,13,41,-1.10
2010,11,24,13,42,-1.10
2010,11,24,13,43,-1.10
2010,11,24,13,44,-1.10
2010,11,24,13,45,-1.10
2010,11,24,13,46,-1.10
2010,11,24,13,47,-1.10
2010,11,24,13,48,-1.00
2010,11,24,13,49,-0.90
2010,11,24,13,50,-0.90
2010,11,24,13,51,-0.90
2010,11,24,13,52,-0.90
2010,11,24,13,53,-0.90
2010,11,24,13,54,-0.90
2010,11,24,13,55,-0.90
2010,11,24,13,56,-0.90
2010,11,24,13,57,-0.90
2010,11,24,13,58,-1.00
2010,11,24,13,59,-1.10
2010,11,24,14,00,-1.10
2010,11,24,14,01,-1.00
2010,11,24,14,02,-0.90
2010,11,24,14,03,-0.90
2010,11,24,14,04,-0.90
2010,11,24,14,05,-0.90
2010,11,24,14,06,-0.90
2010,11,24,14,07,-0.90
2010,11,24,14,08,-0.90
2010,11,24,14,09,-0.90
2010,11,24,14,10,-0.90
2010,11,24,14,11,-0.90
2010,11,24,14,12,-0.90
2010,11,24,14,13,-0.90
2010,11,24,14,14,-0.90
2010,11,24,14,15,-0.90
2010,11,24,14,16,-0.90
2010,11,24,14,17,-0.90
2010,11,24,14,18,-0.90
2010,11,24,14,19,-0.90
2010,11,24,14,20,-0.90
2010,11,24,14,21,-0.90
2010,11,24,14,22,-0.90
2010,11,24,14,23,-0.90
2010,11,24,14,24,-0.90
2010,11,24,14,25,-0.90
2010,11,24,14,26,-0.90
2010,11,24,14,27,-0.90
2010,11,24,14,28,-0.90
2010,11,24,14,29,-0.90
2010,11,24,14,30,-0.90
2010,11,24,14,31,-0.90
2010,11,24,14,32,-0.90
2010,11,24,14,33,-0.90
2010,11,24,14,34,-0.90
2010,11,24,14,35,-0.90
2010,11,24,14,36,-1.00
2010,11,24,14,37,-1.10
2010,11,24,14,38,-1.00
2010,11,24,14,39,-1.00
2010,11,24,14,40,-1.10
2010,11,24,14,41,-0.90
2010,11,24,14,42,-0.90
2010,11,24,14,43,-0.90
2010,11,24,14,44,-0.90
2010,11,24,14,45,-1.00
2010,11,24,14,46,-1.10
2010,11,24,14,47,-1.10
2010,11,24,14,48,-1.10
2010,11,24,14,49,-1.00
2010,11,24,14,50,-0.90
2010,11,24,14,51,-0.90
2010,11,24,14,52,-0.90
2010,11,24,14,53,-0.90
2010,11,24,14,54,-0.90
2010,11,24,14,55,-0.90
2010,11,24,14,56,-0.90
2010,11,24,14,57,-0.90
2010,11,24,14,58,-0.90
2010,11,24,14,59,-0.90
2010,11,24,15,00,-0.90
2010,11,24,15,01,-0.90
2010,11,24,15,02,-0.90
2010,11,24,15,03,-0.90
2010,11,24,15,04,-0.90
2010,11,24,15,05,-0.90
2010,11,24,15,06,-0.90
2010,11,24,15,07,-0.90
2010,11,24,15,08,-0.90
2010,11,24,15,09,-0.90
2010,11,24,15,10,-0.90
2010,11,24,15,11,-0.90
2010,11,24,15,12,-0.90
2010,11,24,15,13,-0.90
2010,11,24,15,14,-0.90
2010,11,24,15,15,-0.90
2010,11,24,15,16,-0.90
2010,11,24,15,17,-0.90
2010,11,24,15,18,-0.90
2010,11,24,15,19,-0.90
2010,11,24,15,20,-0.90
2010,11,24,15,21,-0.90
2010,11,24,15,22,-0.90
2010,11,24,15,23,-0.90
2010,11,24,15,24,-0.90
2010,11,24,15,25,-0.90
2010,11,24,15,26,-0.90
2010,11,24,15,27,-0.90
2010,11,24,15,28,-0.90
2010,11,24,15,29,-0.90
2010,11,24,15,30,-0.90
2010,11,24,15,31,-0.90
2010,11,24,15,32,-0.90
2010,11,24,15,33,-0.90
2010,11,24,15,34,-0.90
2010,11,24,15,35,-0.90
2010,11,24,15,36,-0.90
2010,11,24,15,37,-0.90
2010,11,24,15,38,-0.90
2010,11,24,15,39,-0.90
2010,11,24,15,40,-0.90
2010,11,24,15,41,-0.90
2010,11,24,15,42,-0.90
2010,11,24,15,43,-0.90
2010,11,24,15,44,-0.90
2010,11,24,15,45,-0.90
2010,11,24,15,46,-0.90
2010,11,24,15,47,-0.90
2010,11,24,15,48,-0.90
2010,11,24,15,49,-0.90
2010,11,24,15,50,-0.90
2010,11,24,15,51,-0.90
2010,11,24,15,52,-0.90
2010,11,24,15,53,-0.90
2010,11,24,15,54,-0.90
2010,11,24,15,55,-0.90
2010,11,24,15,56,-0.90
2010,11,24,15,57,-0.90
2010,11,24,15,58,-0.90
2010,11,24,15,59,-0.90
2010,11,24,16,00,-0.90
2010,11,24,16,01,-0.90
2010,11,24,16,02,-0.90
2010,11,24,16,03,-0.90
2010,11,24,16,04,-0.90
2010,11,24,16,05,-0.90
2010,11,24,16,06,-0.90
2010,11,24,16,07,-0.90
2010,11,24,16,08,-0.90
2010,11,24,16,09,-0.90
2010,11,24,16,10,-0.90
2010,11,24,16,11,-0.90
2010,11,24,16,12,-0.90
2010,11,24,16,13,-0.90
2010,11,24,16,14,-0.90
2010,11,24,16,15,-0.90
2010,11,24,16,16,-0.90
2010,11,24,16,17,-0.90
2010,11,24,16,18,-0.90
2010,11,24,16,19,-0.90
2010,11,24,16,20,-0.90
2010,11,24,16,21,-0.90
2010,11,24,16,22,-0.90
2010,11,24,16,23,-0.90
2010,11,24,16,24,-0.90
2010,11,24,16,25,-0.90
2010,11,24,16,26,-1.00
2010,11,24,16,27,-1.10
2010,11,24,16,28,-1.10
2010,11,24,16,29,-1.10
2010,11,24,16,30,-1.10
2010,11,24,16,31,-1.10
2010,11,24,16,32,-1.10
2010,11,24,16,33,-1.10
2010,11,24,16,34,-1.10
2010,11,24,16,35,-1.10
2010,11,24,16,36,-1.10
2010,11,24,16,37,-1.10
2010,11,24,16,38,-1.10
2010,11,24,16,39,-1.10
2010,11,24,16,40,-1.10
2010,11,24,16,41,-1.10
2010,11,24,16,42,-1.10
2010,11,24,16,43,-1.10
2010,11,24,16,44,-1.10
2010,11,24,16,45,-1.10
2010,11,24,16,46,-1.10
2010,11,24,16,47,-1.10
2010,11,24,16,48,-1.10
2010,11,24,16,49,-1.10
2010,11,24,16,50,-1.10
2010,11,24,16,51,-1.10
2010,11,24,16,52,-1.10
2010,11,24,16,53,-1.10
2010,11,24,16,54,-1.10
2010,11,24,16,55,-1.10
2010,11,24,16,56,-1.10
2010,11,24,16,57,-1.10
2010,11,24,16,58,-1.10
2010,11,24,16,59,-1.10
2010,11,24,17,00,-1.10
2010,11,24,17,01,-1.10
2010,11,24,17,02,-1.10
2010,11,24,17,03,-1.10
2010,11,24,17,04,-1.10
2010,11,24,17,05,-1.10
2010,11,24,17,06,-1.10
2010,11,24,17,07,-1.10
2010,11,24,17,08,-1.10
2010,11,24,17,09,-1.10
2010,11,24,17,10,-1.10
2010,11,24,17,11,-1.10
2010,11,24,17,12,-1.10
2010,11,24,17,13,-1.10
2010,11,24,17,14,-1.10
2010,11,24,17,15,-1.10
2010,11,24,17,16,-1.10
2010,11,24,17,17,-1.10
2010,11,24,17,18,-1.10
2010,11,24,17,19,-1.10